Regional Weather Roundup
Issued by NWS

Home | Current Version | Previous Version | Text Only | Print | Product List | Glossary On
Versions: 1 2 3 4 5 6 7 8 9 10 11 12 13 14 15 16 17 18 19 20 21 22 23 24 25 26 27 28 29 30 31 32 33 34 35 36 37 38 39 40 41 42 43 44 45 46 47 48 49 50
000
ASUS43 KLOT 280108
RWRIL

ILLINOIS REGIONAL WEATHER ROUNDUP
NATIONAL WEATHER SERVICE CHICAGO/ROMEOVILLE IL
800 PM CDT WED JUL 27 2016

NOTE: "FAIR" INDICATES FEW OR NO CLOUDS BELOW 12,000 FEET WITH NO
SIGNIFICANT WEATHER AND/OR OBSTRUCTIONS TO VISIBILITY.

* THESE STATIONS ARE NOT UNDER NWS QUALITY CONTROL. THEY ALSO MAY NOT
  REPORT WEATHER SUCH AS PRECIPITATION OR FOG.

ILZ001-002-007-009-015-016-024-280200-
NORTHWEST ILLINOIS

CITY           SKY/WX    TMP DP  RH WIND       PRES   REMARKS
MOLINE         PTCLDY    81  73  76 CALM      29.90S HX  86
STERLING*      PTCLDY    79  73  82 CALM      29.92S HX  82
SAVANNA*       CLOUDY    80  69  69 CALM      29.92R HX  83
$$

ILZ003-004-008-010-011-017-018-280200-
NORTH CENTRAL ILLINOIS

CITY           SKY/WX    TMP DP  RH WIND       PRES   REMARKS
ROCKFORD       MOCLDY    81  68  64 CALM      29.94R HX  84
FREEPORT*      MOCLDY    78  71  81 CALM      29.95R
ROCHELLE*      PTCLDY    78  74  87 CALM      29.94R HX  81
DE KALB*       PTCLDY    79  71  76 SW5       29.95R HX  82
$$

ILZ005-006-012>014-019>023-280200-
NORTHEAST ILLINOIS

CITY           SKY/WX    TMP DP  RH WIND       PRES   REMARKS
CHICAGO-OHARE  CLOUDY    83  61  47 E10       29.91S HX  83
CHICAGO-MIDWAY MOCLDY    83  64  52 E8        29.91S HX  84
AURORA         PTCLDY    81  69  67 S3        29.93R HX  84
LANSING*       MOCLDY    78  67  70 S6        29.92S
JOLIET*        PTCLDY    78  71  79 CALM      29.92R HX  80
WAUKEGAN       MOCLDY    76  69  79 N5        29.93R
DUPAGE AIRPORT PTCLDY    81  66  60 W5        29.92R HX  83
KANKAKEE*      CLEAR     81  69  67 SE3       29.92S HX  83
WHEELING       MOCLDY    81  63  54 E3        29.93R HX  82
MORRIS*        PTCLDY    76  72  85 CALM      29.91R
ROMEOVILLE*    PTCLDY    78  66  67 W5        29.92S
NORTHERLY ISL    N/A     76  70  82 CALM        N/A
$$

LMZ740>746-280200-
SOUTHERN LAKE MICHIGAN

STATION/POSITION SKY/WX   TEMP    WIND        PRES    VSBY  WAVE
                          AIR SEA DIR/SP/G                  HT/PER
                          (F)     (DEG/KT/KT) (MB)    (MI)  (FT/S)
SOUTHERN BUOY              75 76   80/  6/  8 1012.8F         0
WILMETTE HARBOR            75 72  160/  6/  6   N/A           1/ 2
HARRISON CRIB              79      90/ 12/ 13   N/A
BURNHAM HARBOR             77      60/  3/  6   N/A
CALUMET HARBOR             78                   N/A
BURNS HARBOR               79      80/ 13/ 15 1013.5F
MICHIGAN CITY              79      40/ 10/ 11   N/A
MICHIGAN CITY 6N           78 77  100/  4/  6   N/A           1
ST. JOSEPH                 79 79   20/  4/  6 1012.7F         0
$$

ILZ025>027-034>036-040-047-049-050-058-095>099-280200-
WEST-CENTRAL ILLINOIS

CITY           SKY/WX    TMP DP  RH WIND       PRES   REMARKS
QUINCY         CLEAR     83  76  79 NE3       29.90R HX  91
GALESBURG*     CLEAR     78  73  82 CALM      29.91S HX  81
MACOMB*        MOCLDY    81  75  83 N3        29.94R HX  86
JACKSONVILLE*  CLEAR     80  75  84 SE7       29.90R HX  86
PITTSFIELD*    CLEAR     82  78  89 E3        29.91R HX  91
$$

ILZ028>032-037-038-041>044-048-051>054-059>061-280200-
CENTRAL ILLINOIS

CITY           SKY/WX    TMP DP  RH WIND       PRES   REMARKS
PONTIAC        CLEAR     79  76  89 CALM      29.93R HX  83
BLOOMINGTON    CLEAR     78  71  79 SE6       29.93S HX  80
DECATUR        PTCLDY    81  74  79 SE6       29.92S HX  86
PEORIA         CLEAR     83  72  69 SE3       29.91R HX  88
LACON*         CLEAR     80  71  74 CALM      29.91R HX  83
LINCOLN*       CLEAR     81  76  83 SE5       29.91S HX  87
SPRINGFIELD    CLEAR     81  73  76 SE7       29.90S HX  86
TAYLORVILLE    PTCLDY    79  75  88 MISG      29.92S HX  82
$$

ILZ033-039-045-046-055>057-062-063-280200-
EAST-CENTRAL ILLINOIS

CITY           SKY/WX    TMP DP  RH WIND       PRES   REMARKS
CHAMPAIGN      PTCLDY    78  73  84 SE5       29.94S HX  81
MATTOON        PTCLDY    81  73  76 CALM      29.93R HX  86
PARIS*         PTCLDY    78  76  92 CALM      29.94R HX  81
$$

ILZ079-100>102-280200-
SOUTHWEST ILLINOIS

CITY           SKY/WX    TMP DP  RH WIND       PRES   REMARKS
ALTON          MOCLDY    81  75  83 S6        29.91S HX  86
BELLEVILLE     MOCLDY    82  79  91 CALM      29.89S HX  93
CAHOKIA*       PTCLDY    83  75  77 S3        29.90S HX  90
SPARTA*        MOCLDY    82  78  87 CALM      29.92R HX  90
$$

ILZ064>066-069>071-074>076-080>082-084>086-088>090-092>094-280200-
SOUTH-CENTRAL ILLINOIS

CITY           SKY/WX    TMP DP  RH WIND       PRES   REMARKS
CARBONDALE     CLOUDY    75  72  90 SE7       29.91F
CAIRO*         LGT RAIN  74  73  95 N6        29.90S
EFFINGHAM*     PTCLDY    80  78  92 CALM      29.94R HX  88
MARION         CLOUDY    75  73  94 CALM      29.93R
MT. VERNON     CLOUDY    81  70  69 MISG      29.91F HX  84
CENTRALIA*     MOCLDY    83  79  87 E3        29.91S HX  94
SALEM*         CLOUDY    83  76  77 CALM      29.91S HX  91
METROPOLIS*    CLOUDY    76  74  91 SE5       29.93R THUNDER
$$

ILZ067-068-072-073-078-083-087-091-280200-
SOUTHEAST ILLINOIS

CITY           SKY/WX    TMP DP  RH WIND       PRES   REMARKS
LAWRENCEVILLE  CLOUDY    80  76  87 S6        29.92S HX  86
FLORA*         CLOUDY    83  77  82 CALM      29.92S HX  93
FAIRFIELD*     CLOUDY    80  78  92 CALM      29.90F HX  87
HARRISBURG*    CLOUDY    76  74  91 SE6       29.94R
ROBINSON*      MOCLDY    80  74  83 CALM      29.92F HX  84
CARMI*         CLOUDY    78  74  87 CALM      29.92S HX  80
$$

ABBREVIATIONS USED IN REMARKS
   TC - TEMPERATURE IN CELSIUS
  WCI - WIND CHILL INDEX
   HX - HEAT INDEX
  VSB - VISIBILITY
$$





USA.gov is the U.S. government's official web portal to all federal, state and local government web resources and services.